Date Time,Air Temp,Sky Temp,Clarity,Light Level,Rain Sensor,Readings
2016-04-04 00:00:08,21.2,-5.2,26.4,0.0,2.3,111
2016-04-04 00:05:08,21.3,-4.7,26.0,0.0,2.3,112
2016-04-04 00:10:08,21.4,-3.1,24.5,0.0,2.1,111
2016-04-04 00:15:08,21.5,-3.9,25.4,0.0,2.0,112
2016-04-04 00:20:08,21.6,-3.2,24.7,0.0,2.0,112
2016-04-04 00:25:08,21.6,-3.5,25.0,0.0,2.0,111
2016-04-04 00:30:08,21.4,-6.0,27.4,0.0,2.0,112
2016-04-04 00:35:08,21.2,-3.6,24.9,0.0,2.0,112
2016-04-04 00:40:08,21.2,-0.2,21.4,0.0,2.0,112
2016-04-04 00:45:08,20.8,1.1,19.7,0.0,2.0,111
2016-04-04 00:50:08,18.3,3.7,14.6,0.0,2.3,111
2016-04-04 00:55:08,17.4,4.7,12.7,0.0,2.6,112
2016-04-04 01:00:08,17.0,3.4,13.6,0.0,2.6,112
2016-04-04 01:05:08,16.9,2.3,14.6,0.0,2.4,111
2016-04-04 01:10:08,16.8,3.0,13.8,0.0,2.3,111
2016-04-04 01:15:08,16.8,3.2,13.6,0.0,2.3,111
2016-04-04 01:20:08,16.8,1.4,15.4,0.0,2.3,111
2016-04-04 01:25:08,16.7,0.7,16.0,0.0,2.3,111
2016-04-04 01:30:08,16.7,-0.4,17.0,0.0,2.2,112
2016-04-04 01:35:08,16.6,-1.0,17.5,0.0,2.2,112
2016-04-04 01:40:08,16.5,-0.5,17.0,0.0,2.2,112
2016-04-04 01:45:08,16.6,1.5,15.1,0.0,2.2,111
2016-04-04 01:50:08,16.7,5.6,11.1,0.0,2.2,111
2016-04-04 01:55:08,16.8,6.0,10.8,0.0,2.2,112
2016-04-04 02:00:08,16.8,6.3,10.5,0.0,2.3,111
2016-04-04 02:05:08,16.8,5.8,11.1,0.0,2.3,112
2016-04-04 02:10:08,16.9,5.7,11.1,0.0,2.2,111
2016-04-04 02:15:08,16.9,5.6,11.3,0.0,2.2,112
2016-04-04 02:20:08,16.9,4.9,12.0,0.0,2.2,111
2016-04-04 02:25:08,16.8,4.6,12.2,0.0,2.2,112
2016-04-04 02:30:08,16.8,5.5,11.3,0.0,2.2,112
2016-04-04 02:35:08,16.8,6.1,10.7,0.0,2.2,111
2016-04-04 02:40:08,16.9,6.1,10.8,0.0,2.3,112
2016-04-04 02:45:08,16.9,6.3,10.6,0.0,2.3,111
2016-04-04 02:50:08,16.9,5.9,10.9,0.0,2.4,112
2016-04-04 02:55:08,16.9,6.0,10.9,0.0,2.2,112
2016-04-04 03:00:09,16.8,5.6,11.2,0.0,2.2,111
2016-04-04 03:05:09,16.9,5.7,11.2,0.0,2.3,112
2016-04-04 03:10:09,16.8,5.7,11.2,0.0,2.2,111
2016-04-04 03:15:09,16.9,5.6,11.3,0.0,2.3,112
2016-04-04 03:20:09,16.9,6.2,10.7,0.0,2.3,112
2016-04-04 03:25:09,16.9,6.3,10.5,0.0,2.3,111
2016-04-04 03:30:09,16.9,6.2,10.7,0.0,2.3,112
2016-04-04 03:35:09,16.9,6.4,10.5,0.0,2.3,111
2016-04-04 03:40:09,16.9,6.4,10.5,0.0,2.3,111
2016-04-04 03:45:09,16.8,5.2,11.6,0.0,2.3,112
2016-04-04 03:50:09,16.8,5.0,11.8,0.0,2.3,111
2016-04-04 03:55:09,16.8,2.7,14.1,0.0,2.3,111
2016-04-04 04:00:09,16.7,-0.8,17.5,0.0,2.2,112
2016-04-04 04:05:09,16.6,-0.9,17.4,0.0,2.2,111
2016-04-04 04:10:09,16.5,3.1,13.3,0.0,2.2,112
2016-04-04 04:15:09,16.5,3.5,12.9,0.0,2.2,111
2016-04-04 04:20:09,16.5,1.4,15.1,0.0,2.3,111
2016-04-04 04:25:09,16.5,-1.0,17.5,0.0,2.3,112
2016-04-04 04:30:09,18.9,-3.8,22.7,0.0,2.4,112
2016-04-04 04:35:09,20.2,-3.3,23.4,0.0,2.3,111
2016-04-04 04:40:09,20.5,-0.6,21.1,0.0,2.3,112
2016-04-04 04:45:09,20.3,-3.0,23.2,0.0,2.3,112
2016-04-04 04:50:09,20.6,-4.6,25.2,0.0,2.3,111
2016-04-04 04:55:09,20.6,-5.4,26.0,0.0,2.3,112
2016-04-04 05:00:09,20.5,-6.2,26.7,0.0,2.3,112
2016-04-04 05:05:09,20.4,-5.8,26.2,0.0,2.3,111
2016-04-04 05:10:09,20.4,-5.3,25.7,0.0,2.3,112
2016-04-04 05:15:09,20.4,-5.1,25.5,0.0,2.3,111
2016-04-04 05:20:09,20.3,-5.1,25.4,0.0,2.3,111
2016-04-04 05:25:09,20.3,-6.2,26.5,0.0,2.3,112
2016-04-04 05:30:09,20.2,-6.4,26.6,0.0,2.3,111
2016-04-04 05:35:09,19.8,-4.9,24.7,0.1,2.3,112
2016-04-04 05:40:09,20.1,-4.8,25.0,0.2,2.3,111
2016-04-04 05:45:09,20.2,-4.5,24.7,0.3,2.3,112
2016-04-04 05:50:09,20.2,-3.5,23.7,0.7,2.3,112
2016-04-04 05:55:09,20.1,-4.7,24.8,1.4,2.3,111
2016-04-04 06:00:09,20.3,-2.2,22.5,2.7,2.4,112
2016-04-04 06:05:02,20.5,-2.3,22.9,5.5,2.4,75
2016-04-04 06:10:02,20.4,-3.6,24.0,9.4,2.3,112
2016-04-04 06:15:02,20.5,-3.1,23.7,15.4,2.5,112
2016-04-04 06:20:02,20.7,-3.2,23.9,21.0,2.6,112
2016-04-04 06:25:03,20.7,-2.0,22.6,24.6,2.6,111
2016-04-04 06:30:03,20.3,0.5,19.8,26.9,2.6,112
2016-04-04 06:35:03,17.6,1.1,16.6,28.0,2.3,112
2016-04-04 06:40:03,16.6,1.1,15.5,29.0,2.4,110
2016-04-04 06:45:03,16.1,1.6,14.5,29.7,2.3,111
2016-04-04 06:50:03,16.0,1.9,14.0,30.4,2.3,111
2016-04-04 06:55:03,16.0,2.3,13.7,30.9,4.3,111
2016-04-04 07:00:03,16.1,4.5,11.6,31.4,11.0,112
2016-04-04 07:05:03,16.1,4.4,11.7,31.8,6.4,111
2016-04-04 07:10:03,15.9,3.4,12.5,31.9,2.3,112
2016-04-04 07:15:03,15.8,3.5,12.4,31.8,2.4,111
2016-04-04 07:20:03,15.9,5.1,10.8,31.4,2.3,111
2016-04-04 07:25:03,16.0,5.7,10.3,31.4,2.3,112
2016-04-04 07:30:03,16.1,5.0,11.0,31.7,2.3,112
2016-04-04 07:35:03,16.1,3.8,12.3,31.7,2.4,111
2016-04-04 07:40:03,16.1,2.0,14.1,32.0,2.5,112
2016-04-04 07:45:03,16.2,3.6,12.6,32.2,2.3,111
2016-04-04 07:50:03,16.4,5.8,10.6,32.2,2.5,112
2016-04-04 07:55:03,16.5,4.2,12.3,32.2,2.4,112
2016-04-04 08:00:03,16.6,2.6,13.9,32.3,2.9,111
2016-04-04 08:05:03,16.8,1.6,15.1,32.4,2.5,111
2016-04-04 08:10:03,16.9,2.3,14.5,32.4,2.5,112
2016-04-04 08:15:03,16.9,3.4,13.6,32.4,2.4,111
2016-04-04 08:20:03,17.1,1.6,15.5,32.4,2.2,111
2016-04-04 08:25:03,17.4,5.3,12.1,32.4,2.2,112
2016-04-04 08:30:03,17.6,5.1,12.4,32.4,2.3,112
2016-04-04 08:35:03,17.5,3.8,13.8,32.4,2.3,111
2016-04-04 08:40:03,17.6,2.4,15.1,32.4,2.3,111
2016-04-04 08:45:03,17.6,3.6,14.0,32.4,2.3,112
2016-04-04 08:50:03,17.5,3.9,13.6,32.4,2.6,112
2016-04-04 08:55:03,17.3,5.0,12.4,32.3,2.3,111
2016-04-04 09:00:03,17.1,4.6,12.5,32.3,2.3,112
2016-04-04 09:05:03,17.1,2.8,14.2,32.4,2.3,112
2016-04-04 09:10:03,17.2,3.0,14.2,32.4,2.3,111
2016-04-04 09:15:03,17.4,4.6,12.8,32.4,2.3,111
2016-04-04 09:20:03,17.6,5.3,12.3,32.4,2.3,112
2016-04-04 09:25:03,17.6,4.6,13.0,32.4,2.3,112
2016-04-04 09:30:03,17.6,5.3,12.3,32.5,2.4,111
2016-04-04 09:35:03,17.8,5.5,12.3,32.5,2.4,112
2016-04-04 09:40:03,17.7,4.7,13.0,32.5,2.6,112
2016-04-04 09:45:03,17.5,5.3,12.2,32.4,2.7,111
2016-04-04 09:50:03,17.4,4.9,12.5,32.5,2.6,111
2016-04-04 09:55:03,17.5,5.3,12.2,32.4,2.4,112
2016-04-04 10:00:03,17.5,5.1,12.5,32.4,2.6,112
2016-04-04 10:05:03,17.5,5.6,11.8,32.4,2.5,111
2016-04-04 10:10:03,17.5,5.4,12.1,32.4,2.4,112
2016-04-04 10:15:03,17.4,5.2,12.3,32.4,2.7,112
2016-04-04 10:20:03,17.4,5.4,12.0,32.4,2.6,111
2016-04-04 10:25:03,17.4,4.3,13.0,32.4,3.5,112
2016-04-04 10:30:03,17.2,5.4,11.8,32.5,2.6,111
2016-04-04 10:35:03,17.6,6.2,11.4,32.5,2.6,112
2016-04-04 10:40:03,17.9,5.3,12.6,32.4,2.3,111
2016-04-04 10:45:03,17.8,5.3,12.5,32.4,2.4,112
2016-04-04 10:50:03,17.6,5.2,12.4,32.4,2.8,111
2016-04-04 10:55:03,17.4,4.4,13.0,32.3,3.1,112
2016-04-04 11:00:03,17.0,5.2,11.8,32.4,2.7,111
2016-04-04 11:05:03,17.0,5.2,11.8,32.3,2.5,112
2016-04-04 11:10:03,17.0,5.2,11.8,32.4,2.6,111
2016-04-04 11:15:03,17.0,5.2,11.8,32.4,2.7,112
2016-04-04 11:20:03,17.0,5.5,11.5,32.4,2.6,111
2016-04-04 11:25:03,17.0,5.6,11.4,32.4,2.8,112
2016-04-04 11:30:03,17.1,6.0,11.1,32.4,2.7,111
2016-04-04 11:35:03,17.2,5.8,11.4,32.5,2.7,112
2016-04-04 11:40:03,17.3,5.8,11.5,32.5,2.8,111
2016-04-04 11:45:03,17.4,5.5,11.9,32.4,2.9,112
2016-04-04 11:50:03,17.3,5.5,11.8,32.4,2.7,111
2016-04-04 11:55:03,17.2,5.8,11.4,32.4,2.7,112
2016-04-04 12:00:03,17.2,4.7,12.6,32.4,5.9,111
2016-04-04 12:05:03,17.0,4.9,12.1,32.4,11.2,112
2016-04-04 12:10:03,16.7,10.3,6.4,32.5,16.2,111
2016-04-04 12:15:03,16.5,9.9,6.6,32.5,2.5,112
2016-04-04 12:20:03,16.9,5.6,11.3,32.5,2.5,111
2016-04-04 12:25:03,17.1,6.0,11.1,32.5,2.7,112
2016-04-04 12:30:03,17.4,6.1,11.3,32.5,2.5,111
2016-04-04 12:35:03,17.6,5.7,11.9,32.5,2.3,112
2016-04-04 12:40:03,17.6,5.5,12.1,32.5,2.3,112
2016-04-04 12:45:03,17.6,5.5,12.2,32.5,2.3,111
2016-04-04 12:50:03,17.7,5.2,12.4,32.5,2.3,112
2016-04-04 12:55:03,17.7,6.1,11.6,32.5,2.3,112
2016-04-04 13:00:03,17.9,5.9,12.1,32.5,2.4,111
2016-04-04 13:05:03,18.2,5.0,13.2,32.6,2.3,112
2016-04-04 13:10:03,18.4,5.6,12.8,32.5,2.3,111
2016-04-04 13:15:03,18.7,5.7,13.0,32.5,2.2,112
2016-04-04 13:20:03,18.8,5.8,13.0,32.5,2.0,111
2016-04-04 13:25:03,18.9,5.7,13.2,32.5,1.9,112
2016-04-04 13:30:03,18.9,5.9,13.0,32.5,1.9,111
2016-04-04 13:35:03,19.0,5.6,13.4,32.5,1.9,111
2016-04-04 13:40:03,19.1,6.0,13.1,32.5,2.1,112
2016-04-04 13:45:03,19.1,6.0,13.1,32.5,2.2,111
2016-04-04 13:50:03,19.0,6.6,12.4,32.5,2.0,112
2016-04-04 13:55:03,19.2,6.6,12.6,32.5,2.2,111
2016-04-04 14:00:03,19.4,6.5,12.9,32.5,2.2,111
2016-04-04 14:05:03,19.5,6.1,13.4,32.5,2.3,112
2016-04-04 14:10:03,19.5,5.8,13.6,32.6,2.3,111
2016-04-04 14:15:03,19.7,6.0,13.8,32.6,2.3,112
2016-04-04 14:20:03,19.9,5.9,14.0,32.6,2.5,111
2016-04-04 14:25:03,19.8,6.7,13.1,32.5,2.6,112
2016-04-04 14:30:03,19.8,7.0,12.8,32.5,2.4,111
2016-04-04 14:35:03,19.8,3.9,15.9,32.5,2.6,111
2016-04-04 14:40:03,19.6,3.7,15.9,32.5,2.5,112
2016-04-04 14:45:03,19.4,4.9,14.5,32.5,2.3,111
2016-04-04 14:50:03,19.7,5.0,14.7,32.6,2.4,111
2016-04-04 14:55:03,19.9,2.9,17.0,32.5,2.7,112
2016-04-04 15:00:03,19.7,5.8,13.9,32.5,2.6,111
2016-04-04 15:05:03,19.9,5.9,13.9,32.5,2.6,112
2016-04-04 15:10:03,20.0,6.2,13.8,32.6,2.7,111
2016-04-04 15:15:03,20.5,3.7,16.8,32.6,2.6,112
2016-04-04 15:20:03,21.5,2.8,18.8,32.5,2.4,111
2016-04-04 15:25:03,21.9,3.3,18.7,32.5,2.3,112
2016-04-04 15:30:03,21.2,3.7,17.5,32.5,2.3,111
2016-04-04 15:35:03,20.3,5.4,14.8,32.5,2.6,112
2016-04-04 15:40:03,21.5,1.0,20.5,32.5,2.4,111
2016-04-04 15:45:03,20.9,4.7,16.2,32.5,2.5,112
2016-04-04 15:50:03,20.1,5.2,14.9,32.5,2.7,112
2016-04-04 15:55:03,19.8,5.7,14.0,32.4,2.6,111
2016-04-04 16:00:03,19.5,6.3,13.2,32.4,2.4,112
2016-04-04 16:05:03,19.3,6.1,13.2,32.4,2.3,111
2016-04-04 16:10:03,19.3,5.8,13.5,32.5,2.3,112
2016-04-04 16:15:03,19.2,5.3,13.9,32.5,2.3,111
2016-04-04 16:20:03,19.2,5.8,13.4,32.4,2.2,112
2016-04-04 16:25:03,19.1,6.8,12.4,32.4,2.2,111
2016-04-04 16:30:03,19.1,6.6,12.6,32.5,2.1,111
2016-04-04 16:35:03,19.3,4.3,15.1,32.5,2.3,112
2016-04-04 16:40:03,19.6,8.2,11.4,32.5,2.3,111
2016-04-04 16:45:03,20.4,5.9,14.5,32.5,2.6,112
2016-04-04 16:50:03,21.6,2.4,19.3,32.6,2.5,112
2016-04-04 16:55:03,24.1,-0.1,24.2,32.5,2.5,111
2016-04-04 17:00:03,23.4,3.3,20.1,32.5,2.4,112
2016-04-04 17:05:03,23.0,-0.0,23.0,32.5,2.3,111
2016-04-04 17:10:03,23.8,1.6,22.2,32.5,2.4,111
2016-04-04 17:15:03,24.0,0.2,23.8,32.5,2.5,111
2016-04-04 17:20:03,24.0,1.7,22.3,32.5,2.6,111
2016-04-04 17:25:03,23.8,2.8,20.9,32.6,2.6,111
2016-04-04 17:30:03,23.6,3.0,20.6,32.5,2.6,111
2016-04-04 17:35:03,21.2,4.9,16.3,32.4,2.3,111
2016-04-04 17:40:03,20.0,4.8,15.1,32.5,2.6,112
2016-04-04 17:45:03,19.7,3.9,15.8,32.5,2.7,111
2016-04-04 17:50:03,19.6,4.1,15.5,32.5,2.6,112
2016-04-04 17:55:03,19.5,4.8,14.7,32.5,2.4,111
2016-04-04 18:00:03,19.5,4.5,14.9,32.5,2.4,111
2016-04-04 18:05:03,19.5,0.7,18.8,32.4,2.3,112
2016-04-04 18:10:03,21.7,-2.3,24.0,32.4,2.6,111
2016-04-04 18:15:03,22.8,-3.8,26.6,32.5,2.4,113
2016-04-04 18:20:03,23.0,-5.2,28.2,32.4,2.3,111
2016-04-04 18:25:03,23.0,-7.5,30.5,32.4,2.3,112
2016-04-04 18:30:03,22.7,-5.5,28.3,32.4,2.3,111
2016-04-04 18:35:03,22.6,-4.0,26.6,32.3,2.3,112
2016-04-04 18:40:03,22.5,-4.2,26.8,32.3,2.4,111
2016-04-04 18:45:03,22.3,0.2,22.1,32.2,2.5,112
2016-04-04 18:50:03,21.1,-2.4,23.4,32.3,2.6,111
2016-04-04 18:55:03,22.0,-6.9,28.9,32.3,2.6,111
2016-04-04 19:00:03,22.2,-3.8,26.0,32.4,2.7,112
2016-04-04 19:05:03,22.4,-4.0,26.4,32.4,2.5,112
2016-04-04 19:10:03,22.5,-1.8,24.3,32.3,2.4,111
2016-04-04 19:15:03,22.4,-3.3,25.7,32.3,2.3,112
2016-04-04 19:20:03,22.4,-7.8,30.2,32.0,2.4,112
2016-04-04 19:25:03,22.1,-9.9,31.9,31.8,2.6,111
2016-04-04 19:30:03,21.8,-9.7,31.5,31.6,2.6,112
2016-04-04 19:35:03,21.5,-10.3,31.8,31.4,2.4,112
2016-04-04 19:40:03,21.3,-10.8,32.1,31.2,2.3,111
2016-04-04 19:45:03,21.1,-10.9,32.1,30.7,2.2,112
2016-04-04 19:50:03,21.0,-11.1,32.1,29.9,2.0,112
2016-04-04 19:55:03,20.9,-11.0,31.9,28.5,2.0,111
2016-04-04 20:00:03,20.8,-10.9,31.7,25.8,2.1,112
2016-04-04 20:05:03,20.8,-10.7,31.4,21.5,2.2,112
2016-04-04 20:10:03,20.8,-10.4,31.2,16.0,2.3,112
2016-04-04 20:15:03,20.7,-10.2,30.9,10.4,2.3,111
2016-04-04 20:20:03,20.7,-10.2,30.9,5.9,2.3,113
2016-04-04 20:25:03,20.7,-10.3,31.0,3.1,2.3,112
2016-04-04 20:30:03,20.6,-10.2,30.8,1.5,2.3,112
2016-04-04 20:35:03,20.6,-9.5,30.2,0.6,2.3,111
2016-04-04 20:40:03,20.6,-9.7,30.3,0.2,2.3,112
2016-04-04 20:45:03,20.6,-7.3,27.9,0.1,2.4,112
2016-04-04 20:50:03,20.6,-4.1,24.7,0.0,2.3,111
2016-04-04 20:55:03,20.7,-0.7,21.3,0.0,2.3,112
2016-04-04 21:00:03,18.7,0.5,18.2,0.0,2.4,112
2016-04-04 21:05:03,17.8,-3.9,21.7,0.0,2.7,111
2016-04-04 21:10:03,19.9,-8.5,28.4,0.0,2.3,112
2016-04-04 21:15:03,20.3,-10.4,30.7,0.0,2.4,112
2016-04-04 21:20:03,20.4,-10.6,30.9,0.0,2.4,112
2016-04-04 21:25:04,20.6,-9.2,29.8,0.0,2.4,112
2016-04-04 21:30:04,20.0,-8.9,28.9,0.0,2.4,111
2016-04-04 21:35:04,20.4,-4.9,25.3,0.0,2.4,112
2016-04-04 21:40:04,20.5,-4.5,25.0,0.0,2.4,112
2016-04-04 21:45:04,20.6,-5.0,25.5,0.0,2.4,112
2016-04-04 21:50:04,20.5,-2.0,22.5,0.0,2.4,111
2016-04-04 21:55:04,20.4,-0.6,21.0,0.0,2.3,111
2016-04-04 22:00:04,18.1,1.5,16.6,0.0,2.5,111
2016-04-04 22:05:04,17.0,2.8,14.2,0.0,2.5,112
2016-04-04 22:10:04,16.8,3.9,12.8,0.0,2.3,111
2016-04-04 22:15:04,16.7,4.6,12.1,0.0,2.3,112
2016-04-04 22:20:04,16.7,4.7,12.0,0.0,2.3,112
2016-04-04 22:25:04,16.8,3.8,12.9,0.0,2.3,111
2016-04-04 22:30:04,16.8,3.7,13.1,0.0,2.3,111
2016-04-04 22:35:04,16.7,4.3,12.4,0.0,2.2,112
2016-04-04 22:40:04,16.7,5.7,11.0,0.0,2.2,112
2016-04-04 22:45:04,16.7,5.5,11.3,0.0,2.2,112
2016-04-04 22:50:04,16.8,6.0,10.8,0.0,2.5,111
2016-04-04 22:55:04,16.8,5.6,11.2,0.0,2.6,112
2016-04-04 23:00:04,16.8,4.9,11.9,0.0,2.8,112
2016-04-04 23:05:04,16.7,5.1,11.7,0.0,2.4,112
2016-04-04 23:10:04,16.7,4.3,12.4,0.0,2.9,111
2016-04-04 23:15:04,16.6,5.4,11.2,0.0,2.8,112
2016-04-04 23:20:04,16.6,4.8,11.8,0.0,2.6,111
2016-04-04 23:25:04,16.6,6.6,10.0,0.0,5.1,112
2016-04-04 23:30:04,16.5,4.6,11.9,0.0,2.9,111
2016-04-04 23:35:04,16.4,4.8,11.6,0.0,2.6,112
2016-04-04 23:40:04,16.4,6.4,10.0,0.0,2.6,111
2016-04-04 23:45:04,16.5,6.0,10.4,0.0,2.5,112
2016-04-04 23:50:04,16.6,5.9,10.7,0.0,2.5,112
2016-04-04 23:55:04,16.6,6.4,10.1,0.0,2.5,111
